FW3803 Weather Reports


Display with metric or nautical units.
time (UTC)temp
F
wind
direction
speed
MPH
gust
MPH
rain 1hr
in
rain 24hr
in
rain mn
in
humidity
%
barometer
mb
20260902224516 79 135 1.0 3.0 0.00 0.00 0.00 84 1027.2
20260902224016 78 158 1.0 3.0 0.00 0.00 0.00 85 1027.1
20260902223516 78 135 1.0 3.0 0.00 0.00 0.00 85 1027.5
20260902223016 78 0.0 2.0 0.00 0.00 0.00 86 1027.7
20260902222536 78 158 1.0 3.0 0.00 0.00 0.00 86 1027.9
20260902222016 78 0.0 3.0 0.00 0.00 0.00 85 1028.3
20260902221516 79 0.0 1.0 0.00 0.00 0.00 85 1028.4
20260902221016 79 135 1.0 3.0 0.00 0.00 0.00 85 1028.3
20260902220516 79 0.0 1.0 0.00 0.00 0.00 83 1028.2
20260902220016 80 0.0 1.0 0.00 0.00 0.00 83 1028.0
20260902215516 80 158 1.0 4.0 0.00 0.00 0.00 81 1027.3
20260902215016 81 0.0 2.0 0.00 0.00 0.00 81 1027.7
20260902214516 82 158 2.0 5.0 0.00 0.00 0.00 79 1027.8
20260902214016 83 180 2.0 6.0 0.00 0.00 0.00 76 1027.9
20260902213516 85 180 1.0 4.0 0.00 0.00 0.00 72 1027.8
20260902213016 86 203 2.0 7.0 0.00 0.00 0.00 70 1027.7
20260902212516 86 158 1.0 5.0 0.00 0.00 0.00 70 1028.0
20260902212016 87 180 2.0 6.0 0.00 0.00 0.00 67 1028.0
20260902211516 89 0 3.0 8.0 0.00 0.00 0.00 65 1028.3
20260902211016 91 135 2.0 13.0 0.00 0.00 0.00 63 1027.9
20260902210516 92 0.0 1.0 0.00 0.00 0.00 63 1027.5
20260902210016 92 0.0 1.0 0.00 0.00 0.00 62 1027.2
20260902205516 92 45 1.0 3.0 0.00 0.00 0.00 61 1026.9
20260902205016 92 0.0 2.0 0.00 0.00 0.00 62 1026.8
20260902204516 92 0.0 0.0 0.00 0.00 0.00 62 1026.8
20260902204016 92 0.0 0.0 0.00 0.00 0.00 60 1026.8
20260902203516 92 0.0 1.0 0.00 0.00 0.00 61 1026.9
20260902203036 92 0.0 1.0 0.00 0.00 0.00 60 1026.9
20260902202516 93 0.0 2.0 0.00 0.00 0.00 60 1027.0
20260902202016 93 158 2.0 5.0 0.00 0.00 0.00 59 1027.0
20260902201516 93 135 1.0 4.0 0.00 0.00 0.00 59 1027.1
20260902201016 92 0.0 1.0 0.00 0.00 0.00 58 1027.2
20260902200516 92 0.0 3.0 0.00 0.00 0.00 59 1027.3
20260902200016 93 0.0 4.0 0.00 0.00 0.00 59 1027.3
20260902195516 93 158 2.0 4.0 0.00 0.00 0.00 58 1027.1
20260902195016 93 180 1.0 4.0 0.00 0.00 0.00 59 1027.0
20260902194536 93 135 1.0 3.0 0.00 0.00 0.00 59 1027.0
20260902194036 93 0.0 2.0 0.00 0.00 0.00 58 1026.9
20260902193556 93 135 1.0 2.0 0.00 0.00 0.00 58 1027.0
20260902193016 93 135 1.0 5.0 0.00 0.00 0.00 56 1027.0
20260902192516 93 158 1.0 5.0 0.00 0.00 0.00 56 1027.3
20260902192036 93 135 1.0 4.0 0.00 0.00 0.00 59 1027.2
20260902191536 93 135 2.0 5.0 0.00 0.00 0.00 58 1027.4
20260902191016 93 135 1.0 3.0 0.00 0.00 0.00 57 1027.5
20260902190516 93 0.0 1.0 0.00 0.00 0.00 59 1027.4
20260902190016 93 180 1.0 5.0 0.00 0.00 0.00 58 1027.4
20260902185516 92 23 1.0 3.0 0.00 0.00 0.00 61 1027.6
20260902185016 93 0.0 2.0 0.00 0.00 0.00 60 1027.6
20260902184516 93 180 1.0 4.0 0.00 0.00 0.00 58 1027.6
20260902184016 93 0.0 2.0 0.00 0.00 0.00 58 1027.7
20260902183516 93 180 1.0 4.0 0.00 0.00 0.00 57 1027.7
20260902183016 93 0.0 2.0 0.00 0.00 0.00 60 1027.9
20260902182536 93 0.0 1.0 0.00 0.00 0.00 58 1027.8
20260902182016 93 180 1.0 3.0 0.00 0.00 0.00 56 1027.9
20260902181516 93 158 1.0 4.0 0.00 0.00 0.00 57 1027.9
20260902181016 94 225 1.0 4.0 0.00 0.00 0.00 56 1028.0
20260902180516 94 158 2.0 3.0 0.00 0.00 0.00 59 1027.9
20260902180016 93 135 2.0 5.0 0.00 0.00 0.00 57 1028.0
20260902175516 93 158 1.0 3.0 0.00 0.00 0.00 56 1028.0
20260902175016 93 0.0 2.0 0.00 0.00 0.00 57 1028.0
20260902174516 93 0.0 1.0 0.00 0.00 0.00 57 1027.9
20260902174016 94 0.0 3.0 0.00 0.00 0.00 58 1027.9
20260902173516 94 180 1.0 3.0 0.00 0.00 0.00 59 1028.0
20260902173016 94 158 1.0 3.0 0.00 0.00 0.00 57 1028.0
20260902172516 94 45 1.0 3.0 0.00 0.00 0.00 59 1027.9
20260902172016 94 0.0 2.0 0.00 0.00 0.00 58 1028.0
20260902171036 94 0.0 1.0 0.00 0.00 0.00 59 1028.1
20260902170516 94 135 1.0 3.0 0.00 0.00 0.00 57 1028.1
20260902170016 94 158 1.0 3.0 0.00 0.00 0.00 57 1028.0
20260902165516 94 0.0 2.0 0.00 0.00 0.00 57 1028.1
20260902165016 94 0.0 2.0 0.00 0.00 0.00 61 1028.0
20260902164516 93 135 1.0 5.0 0.00 0.00 0.00 59 1028.1
20260902164016 93 158 1.0 4.0 0.00 0.00 0.00 60 1028.2
20260902163516 93 0.0 1.0 0.00 0.00 0.00 61 1028.2
20260902163036 93 338 1.0 2.0 0.00 0.00 0.00 59 1028.3
20260902162516 94 23 1.0 3.0 0.00 0.00 0.00 59 1028.2
20260902162016 94 135 1.0 3.0 0.00 0.00 0.00 60 1028.3
20260902161516 94 0.0 2.0 0.00 0.00 0.00 60 1028.4
20260902161016 94 0.0 1.0 0.00 0.00 0.00 59 1028.4
20260902160556 94 0.0 2.0 0.00 0.00 0.00 60 1028.5
20260902160016 93 158 2.0 4.0 0.00 0.00 0.00 59 1028.4
20260902155516 94 158 1.0 4.0 0.00 0.00 0.00 59 1028.4
20260902155016 93 158 1.0 2.0 0.00 0.00 0.00 59 1028.5
20260902154516 93 135 1.0 3.0 0.00 0.00 0.00 61 1028.6
20260902154016 93 180 1.0 3.0 0.00 0.00 0.00 62 1028.7
20260902153516 93 158 1.0 4.0 0.00 0.00 0.00 63 1028.7
20260902153017 93 135 1.0 3.0 0.00 0.00 0.00 61 1028.6
20260902152516 93 0.0 2.0 0.00 0.00 0.00 62 1028.8
20260902152056 92 158 1.0 3.0 0.00 0.00 0.00 64 1028.8
20260902151516 92 0.0 2.0 0.00 0.00 0.00 65 1028.8
20260902151016 92 0.0 1.0 0.00 0.00 0.00 69 1028.8
20260902150516 91 0.0 2.0 0.00 0.00 0.00 68 1028.7
20260902150016 91 135 1.0 3.0 0.00 0.00 0.00 66 1028.7
20260902145516 91 0.0 1.0 0.00 0.00 0.00 66 1028.8
20260902145016 91 0.0 1.0 0.00 0.00 0.00 70 1028.8
20260902144516 90 0.0 0.0 0.00 0.00 0.00 71 1028.8
20260902144016 90 0.0 0.0 0.00 0.00 0.00 68 1028.7
20260902143516 90 0.0 1.0 0.00 0.00 0.00 70 1028.8
20260902143016 90 0.0 1.0 0.00 0.00 0.00 69 1028.7
20260902142516 90 0.0 1.0 0.00 0.00 0.00 67 1028.7
20260902142016 90 0.0 1.0 0.00 0.00 0.00 71 1028.7
20260902141516 89 0.0 1.0 0.00 0.00 0.00 69 1028.7
20260902141016 89 0.0 2.0 0.00 0.00 0.00 71 1028.8
20260902140517 88 0.0 1.0 0.00 0.00 0.00 70 1028.7
20260902140016 89 0.0 1.0 0.00 0.00 0.00 69 1028.5
20260902135516 89 0.0 1.0 0.00 0.00 0.00 69 1028.5
20260902135036 89 0.0 1.0 0.00 0.00 0.00 72 1028.5
20260902134517 89 0.0 2.0 0.00 0.00 0.00 71 1028.5
20260902134016 88 135 1.0 3.0 0.00 0.00 0.00 72 1028.4
20260902133516 87 0.0 1.0 0.00 0.00 0.00 75 1028.3
20260902133016 87 0.0 1.0 0.00 0.00 0.00 78 1028.3
20260902132556 86 0.0 1.0 0.00 0.00 0.00 81 1028.1
20260902132016 85 0.0 1.0 0.00 0.00 0.00 81 1028.1
20260902131536 84 0.0 1.0 0.00 0.00 0.00 80 1028.0
20260902131016 84 0.0 1.0 0.00 0.00 0.00 82 1028.1
20260902130516 83 0.0 0.0 0.00 0.00 0.00 86 1028.1
20260902130016 82 0.0 1.0 0.00 0.00 0.00 88 1027.9
20260902125536 81 0.0 1.0 0.00 0.00 0.00 90 1028.0
20260902125016 79 0.0 1.0 0.00 0.00 0.00 92 1028.1
20260902124516 78 0.0 0.0 0.00 0.00 0.00 92 1028.1
20260902124016 78 0.0 0.0 0.00 0.00 0.00 93 1028.0
20260902123516 77 0.0 1.0 0.00 0.00 0.00 93 1028.0
20260902123036 76 0.0 0.0 0.00 0.00 0.00 93 1028.1
20260902122556 76 0.0 0.0 0.00 0.00 0.00 93 1028.1
20260902122016 75 0.0 0.0 0.00 0.00 0.00 94 1028.0
20260902121516 75 0.0 0.0 0.00 0.00 0.00 94 1028.0
20260902121016 75 0.0 0.0 0.00 0.00 0.00 94 1028.0
20260902120516 74 0.0 0.0 0.00 0.00 0.00 94 1027.9
20260902120017 74 0.0 0.0 0.00 0.00 0.00 94 1027.9
20260902115516 74 0.0 0.0 0.00 0.00 0.00 94 1027.9
20260902115016 74 0.0 0.0 0.00 0.00 0.00 94 1027.9
20260902114516 73 0.0 0.0 0.00 0.00 0.00 94 1028.0
20260902114016 73 0.0 0.0 0.00 0.00 0.00 94 1027.9
20260902113516 73 0.0 0.0 0.00 0.00 0.00 94 1027.9
20260902113036 73 0.0 0.0 0.00 0.00 0.00 94 1027.9
20260902112516 73 0.0 0.0 0.00 0.00 0.00 94 1027.9
20260902112036 73 0.0 0.0 0.00 0.00 0.00 94 1027.9
20260902111516 73 0.0 0.0 0.00 0.00 0.00 94 1027.8
20260902111036 73 0.0 0.0 0.00 0.00 0.00 94 1027.8
20260902110536 73 0.0 0.0 0.00 0.00 0.00 94 1027.9
20260902110016 73 0.0 0.0 0.00 0.00 0.00 94 1027.9
20260902105516 73 0.0 0.0 0.00 0.00 0.00 94 1027.9
20260902105016 73 0.0 0.0 0.00 0.00 0.00 94 1027.8
20260902104516 73 0.0 0.0 0.00 0.00 0.00 94 1027.8
20260902104016 73 0.0 0.0 0.00 0.00 0.00 94 1027.7
20260902103536 73 0.0 0.0 0.00 0.00 0.00 94 1027.6
20260902103016 73 0.0 0.0 0.00 0.00 0.00 94 1027.7
20260902102536 73 0.0 0.0 0.00 0.00 0.00 94 1027.5
20260902102021 73 0.0 0.0 0.00 0.00 0.00 94 1027.6
20260902101536 73 0.0 0.0 0.00 0.00 0.00 94 1027.6
20260902101036 73 0.0 0.0 0.00 0.00 0.00 94 1027.6
20260902100516 73 0.0 0.0 0.00 0.00 0.00 94 1027.5
20260902100016 73 0.0 0.0 0.00 0.00 0.00 94 1027.4
20260902095536 73 0.0 0.0 0.00 0.00 0.00 94 1027.4
20260902095036 73 0.0 0.0 0.00 0.00 0.00 94 1027.4
20260902094536 73 0.0 0.0 0.00 0.00 0.00 94 1027.3
20260902094016 73 0.0 0.0 0.00 0.00 0.00 94 1027.3
20260902093516 73 0.0 0.0 0.00 0.00 0.00 94 1027.3
20260902093016 73 0.0 0.0 0.00 0.00 0.00 94 1027.3
20260902092616 73 0.0 0.0 0.00 0.00 0.00 94 1027.3
20260902092036 73 0.0 0.0 0.00 0.00 0.00 94 1027.3
20260902091516 73 0.0 0.0 0.00 0.00 0.00 94 1027.3
20260902091036 73 0.0 0.0 0.00 0.00 0.00 94 1027.2
20260902090516 73 0.0 0.0 0.00 0.00 0.00 94 1027.2
20260902090016 73 0.0 0.0 0.00 0.00 0.00 94 1027.2
20260902085516 73 0.0 0.0 0.00 0.00 0.00 94 1027.1
20260902085016 73 0.0 0.0 0.00 0.00 0.00 94 1027.2
20260902084516 73 0.0 0.0 0.00 0.00 0.00 94 1027.2
20260902084016 73 0.0 0.0 0.00 0.00 0.00 94 1027.2
20260902083536 73 0.0 0.0 0.00 0.00 0.00 94 1027.2
20260902083016 73 0.0 1.0 0.00 0.00 0.00 94 1027.2
20260902082516 73 0.0 1.0 0.00 0.00 0.00 94 1027.1
20260902082036 73 0.0 0.0 0.00 0.00 0.00 94 1027.2
20260902081536 73 0.0 0.0 0.00 0.00 0.00 94 1027.1
20260902081016 73 0.0 0.0 0.00 0.00 0.00 94 1027.0
20260902080556 73 0.0 0.0 0.00 0.00 0.00 94 1027.0
20260902080016 73 0.0 0.0 0.00 0.00 0.00 94 1027.0
20260902075516 73 0.0 0.0 0.00 0.00 0.00 94 1027.0
20260902075016 73 0.0 0.0 0.00 0.00 0.00 94 1026.9
20260902074516 73 0.0 0.0 0.00 0.00 0.00 94 1026.9
20260902074016 73 0.0 0.0 0.00 0.00 0.00 94 1026.9
20260902073516 73 0.0 0.0 0.00 0.00 0.00 94 1026.8
20260902073016 73 0.0 0.0 0.00 0.00 0.00 94 1026.9
20260902072516 73 0.0 0.0 0.00 0.00 0.00 94 1026.9
20260902072016 73 0.0 0.0 0.00 0.00 0.00 94 1026.9
20260902071516 73 0.0 0.0 0.00 0.00 0.00 94 1026.9
20260902071016 74 0.0 0.0 0.00 0.00 0.00 94 1026.9
20260902070516 74 0.0 0.0 0.00 0.00 0.00 94 1027.0
20260902070016 74 0.0 0.0 0.00 0.00 0.00 94 1027.0
20260902065516 74 0.0 0.0 0.00 0.00 0.00 94 1026.9
20260902065016 74 0.0 0.0 0.00 0.00 0.00 93 1026.9
20260902064516 74 0.0 0.0 0.00 0.00 0.00 94 1026.9
20260902064016 74 0.0 0.0 0.00 0.00 0.00 94 1026.9
20260902063516 74 0.0 0.0 0.00 0.00 0.00 93 1026.9
20260902063016 74 0.0 0.0 0.00 0.00 0.00 93 1026.9
20260902062516 74 0.0 0.0 0.00 0.00 0.00 93 1026.9
20260902062016 74 0.0 0.0 0.00 0.00 0.00 93 1026.8
20260902061516 74 0.0 0.0 0.00 0.00 0.00 93 1026.8
20260902061016 74 0.0 0.0 0.00 0.00 0.00 93 1026.8
20260902060516 75 0.0 0.0 0.00 0.00 0.00 93 1026.8
20260902060016 75 0.0 0.0 0.00 0.00 0.00 93 1027.0
20260902055516 75 0.0 0.0 0.00 0.00 0.00 93 1027.1
20260902055016 75 0.0 0.0 0.00 0.00 0.00 93 1027.1
20260902054516 75 0.0 0.0 0.00 0.00 0.00 93 1027.1
20260902054016 75 0.0 0.0 0.00 0.00 0.00 93 1027.0
20260902053536 75 0.0 0.0 0.00 0.00 0.00 93 1027.0
20260902053036 75 0.0 0.0 0.00 0.00 0.00 93 1027.0
20260902052516 75 0.0 0.0 0.00 0.00 0.00 93 1027.0
20260902052016 75 0.0 0.0 0.00 0.00 0.00 93 1027.0
20260902051516 75 0.0 0.0 0.00 0.00 0.00 93 1027.0
20260902051015 75 0.0 0.0 0.00 0.00 0.00 93 1027.1
20260902050536 75 0.0 0.0 0.00 0.00 0.00 93 1027.1
20260902050036 75 0.0 0.0 0.00 0.00 0.00 93 1027.1
20260902045515 75 0.0 0.0 0.00 0.00 0.00 93 1027.0
20260902045016 76 0.0 0.0 0.00 0.00 0.00 93 1027.0
20260902044515 76 0.0 0.0 0.00 0.00 0.00 93 1027.0
20260902044015 76 0.0 0.0 0.00 0.00 0.00 93 1027.0
20260902043516 76 0.0 0.0 0.00 0.00 0.00 93 1027.0
20260902043016 75 0.0 0.0 0.00 0.00 0.00 93 1026.9
20260902042515 75 0.0 0.0 0.00 0.00 0.00 93 1026.7
20260902042016 76 0.0 0.0 0.00 0.00 0.00 93 1026.7
20260902041515 76 0.0 0.0 0.00 0.00 0.00 93 1026.7
20260902041016 76 0.0 0.0 0.00 0.00 0.00 93 1026.7
20260902040516 76 0.0 0.0 0.00 0.00 0.00 93 1026.6
20260902040016 76 0.0 0.0 0.00 0.00 0.00 93 1026.6
20260902035517 76 0.0 0.0 0.00 0.00 0.00 93 1026.6
20260902035016 76 0.0 0.0 0.00 0.00 0.00 93 1026.4
20260902034517 76 0.0 0.0 0.00 0.00 0.00 93 1026.5
20260902034017 76 0.0 0.0 0.00 0.00 0.00 93 1026.4
20260902033516 76 0.0 0.0 0.00 0.00 0.00 93 1026.4
20260902033016 76 0.0 0.0 0.00 0.00 0.00 93 1026.5
20260902032516 76 0.0 0.0 0.00 0.00 0.00 93 1026.4
20260902032037 76 0.0 0.0 0.00 0.00 0.00 93 1026.5
20260902031516 76 0.0 0.0 0.00 0.00 0.00 93 1026.6
20260902031016 76 0.0 0.0 0.00 0.00 0.00 93 1026.6
20260902030516 77 0.0 0.0 0.00 0.00 0.00 93 1026.5
20260902030036 77 0.0 0.0 0.00 0.00 0.00 93 1026.5
20260902025516 77 0.0 0.0 0.00 0.00 0.00 93 1026.5
20260902025016 77 0.0 0.0 0.00 0.00 0.00 92 1026.4
20260902024516 77 0.0 0.0 0.00 0.00 0.00 92 1026.4
20260902024016 77 0.0 0.0 0.00 0.00 0.00 92 1026.4
20260902023516 77 0.0 0.0 0.00 0.00 0.00 92 1026.5
20260902023017 77 0.0 0.0 0.00 0.00 0.00 92 1026.6
20260902022516 77 0.0 0.0 0.00 0.00 0.00 92 1026.4
20260902022017 77 0.0 0.0 0.00 0.00 0.00 92 1026.4
20260902021516 77 0.0 0.0 0.00 0.00 0.00 92 1026.5
20260902021036 77 0.0 0.0 0.00 0.00 0.00 92 1026.5
20260902020517 78 0.0 0.0 0.00 0.00 0.00 92 1026.3
20260902020017 78 0.0 0.0 0.00 0.00 0.00 91 1026.1
20260902015517 78 0.0 0.0 0.00 0.00 0.00 92 1026.0
20260902015016 78 0.0 0.0 0.00 0.00 0.00 91 1026.1
20260902014516 78 0.0 0.0 0.00 0.00 0.00 91 1026.1
20260902014016 78 0.0 0.0 0.00 0.00 0.00 91 1026.0
20260902013516 78 0.0 0.0 0.00 0.00 0.00 91 1025.7
20260902013016 78 0.0 0.0 0.00 0.00 0.00 91 1025.7
20260902012517 79 0.0 0.0 0.00 0.00 0.00 91 1025.7
20260902012037 79 0.0 0.0 0.00 0.00 0.00 90 1025.7
20260902011516 79 0.0 0.0 0.00 0.00 0.00 90 1025.7
20260902011016 79 0.0 0.0 0.00 0.00 0.00 90 1025.7
20260902010516 79 0.0 0.0 0.00 0.00 0.00 89 1025.6
20260902010016 79 0.0 0.0 0.00 0.00 0.00 89 1025.5
20260902005536 79 0.0 0.0 0.00 0.00 0.00 89 1025.5
20260902005016 80 0.0 0.0 0.00 0.00 0.00 89 1025.4
20260902004516 80 0.0 0.0 0.00 0.00 0.00 89 1025.3
20260902004016 80 0.0 0.0 0.00 0.00 0.00 88 1025.2
20260902003516 80 0.0 0.0 0.00 0.00 0.00 88 1025.3
20260902003016 80 0.0 0.0 0.00 0.00 0.00 87 1025.2
20260902002536 81 0.0 0.0 0.00 0.00 0.00 87 1025.1
20260902002016 81 0.0 0.0 0.00 0.00 0.00 86 1025.2
20260902001536 81 0.0 0.0 0.00 0.00 0.00 86 1025.1
20260902001036 81 0.0 0.0 0.00 0.00 0.00 86 1025.0
20260902000516 81 0.0 0.0 0.00 0.00 0.00 85 1025.2
20260902000016 82 0.0 0.0 0.00 0.00 0.00 85 1025.2
20260901235516 82 0.0 0.0 0.00 0.00 0.00 85 1025.1
20260901235056 82 0.0 0.0 0.00 0.00 0.00 84 1025.1
20260901234516 82 0.0 0.0 0.00 0.00 0.00 85 1025.0
20260901234016 83 0.0 0.0 0.00 0.00 0.00 84 1025.2
20260901233556 83 0.0 0.0 0.00 0.00 0.00 85 1025.1
20260901233016 83 0.0 0.0 0.00 0.00 0.00 84 1025.3
20260901232516 84 0.0 0.0 0.00 0.00 0.00 83 1025.3
20260901232016 84 0.0 0.0 0.00 0.00 0.00 82 1025.3
20260901231536 84 0.0 0.0 0.00 0.00 0.00 82 1025.5
20260901231016 85 0.0 0.0 0.00 0.00 0.00 81 1025.6
20260901230516 85 0.0 0.0 0.00 0.00 0.00 80 1025.6
20260901230016 85 0.0 0.0 0.00 0.00 0.00 79 1025.5
20260901225517 85 0.0 0.0 0.00 0.00 0.00 79 1025.6
20260901225016 86 0.0 0.0 0.00 0.00 0.00 78 1025.7